Tracking 23446 objects as of 19-Jun-2021
HD Live streaming from Space Station
objects crossing your sky now

BREEZE-M R/B

Track BREEZE-M R/B now!


NORAD ID: 38099
Int'l Code: 2012-011B
Perigee: 2,296.4 km
Apogee: 63,373.1 km
Inclination: 30.9 °
Period: 1,287.6 minutes
Semi major axis: 39205 km
RCS: 1.5849 m2 (large)
Launch date: March 25, 2012
Source: Commonwealth of Independent States (former USSR) (CIS)
Launch site: TYURATAM MISSILE AND SPACE COMPLEX (TTMTR)

Note: This is a ROCKET BODY
aabbcc
Your satellite tracking list
Your tracking list is empty




NASA's NSSDC Master Catalog

Two Line Element Set (TLE):
1 38099U 12011B   21168.84323424 -.00000353  00000-0  00000-0 0  9994
2 38099  30.8903   6.0304 7789244  47.7982 356.1908  1.11835036 37555
Source of the keplerian elements: AFSPC